RH
82 61 65 50 42 37 61 57 53 72 45 38 31 38 25 29 30 37 34 31 22 20 19 23 30 29 30 24 23 26 23 20 46 33 36 36 37 34 24 55 54 44 51 88
84 64 51 47 51 48 76 46 40 64 56 51 42 26 28 32 34 33 32 28 25 20 19 24 21 22 27 26 22 19 18 20 30 32 37 37 36 31 25 25 36 76 71 90
98 94 62 48 48 48 79 46 52 52 47 41 34 25 24 30 34 30 28 26 25 25 24 19 23 25 36 32 22 40 26 16 17 24 29 30 32 33 27 22 57 34 79 88
97 95 91 63 39 47 73 42 39 50 48 36 36 29 29 28 35 36 31 31 26 24 25 25 26 26 41 38 42 34 24 21 18 17 19 26 25 34 31 40 34 61 66 57
92 91 90 81 37 43 65 52 51 42 42 34 37 37 29 30 26 33 33 35 23 24 23 21 22 30 33 31 42 36 31 29 28 25 26 27 31 26 28 26 24 23 21 22
90 90 90 87 62 39 65 71 67 61 38 35 37 28 30 31 30 28 26 31 26 28 24 19 22 21 24 27 35 34 35 31 32 46 37 36 32 26 26 25 24 23 25 19
90 87 87 86 83 70 79 89 96 76 52 33 36 32 34 33 33 36 33 32 30 32 28 27 27 29 32 28 30 26 34 31 30 35 38 42 20 31 26 24 23 21 22 25
95 88 85 85 83 76 66 98 99 95 83 47 38 36 38 35 34 41 38 34 35 34 35 34 37 39 38 37 36 38 32 30 34 46 43 24 25 30 35 32 26 22 25 24
96 95 88 84 83 82 64 95 88 98 100 82 60 61 51 46 35 35 42 48 43 44 41 42 49 44 30 44 63 56 45 44 39 39 49 40 28 37 33 35 36 37 31 37
88 91 95 92 88 82 83 65 90 93 100 94 81 70 71 57 53 49 46 53 53 50 48 51 44 37 27 36 47 70 65 55 56 48 52 34 36 40 35 41 32 46 42 48
91 91 93 94 83 81 96 73 66 80 86 67 72 98 94 76 70 75 62 58 58 59 55 48 42 41 31 34 26 51 57 64 66 55 54 59 43 47 44 50 54 53 53 55
83 92 94 94 84 90 95 94 72 75 80 65 62 64 74 100 76 83 81 61 61 53 54 45 39 40 40 35 40 42 43 36 36 45 45 69 59 62 55 55 60 60 63 62
75 79 93 93 95 97 96 97 92 84 69 59 58 56 60 67 95 100 100 86 70 61 59 67 64 75 48 46 45 35 40 40 50 51 77 95 100 100 99 87 99 96 86 76
85 74 78 91 89 85 90 95 88 91 68 81 46 53 62 92 95 98 100 99 100 98 95 95 96 87 57 56 58 56 84 82 57 94 100 99 100 100 100 100 86 70 53 48
91 88 77 78 88 86 89 81 78 87 79 75 57 48 50 56 63 92 99 97 99 100 100 100 100 99 94 97 90 90 94 95 98 95 97 87 98 100 99 92 72 61 57 53
80 78 80 80 83 91 76 52 93 97 99 99 78 42 47 60 76 83 96 94 99 100 100 100 100 100 100 98 92 96 95 96 97 95 97 96 97 95 86 84 75 57 53 52
80 78 75 78 89 85 68 47 86 93 98 99 77 57 46 62 69 92 96 95 100 100 100 100 99 95 92 94 92 95 95 96 96 98 93 94 92 95 78 68 66 53 46 44
85 79 81 87 82 77 73 84 94 95 93 99 87 63 45 69 83 90 100 98 100 100 100 97 94 91 92 94 96 96 95 92 91 92 91 93 82 64 57 46 43 43 44 45
82 78 61 80 81 70 76 66 92 100 92 93 93 82 80 74 84 88 94 96 95 94 91 93 83 90 93 95 95 94 95 94 96 82 63 58 57 53 51 48 48 50 51 49
63 69 53 57 80 65 72 92 70 72 87 88 82 60 80 67 67 85 82 94 94 94 93 81 89 94 96 96 96 93 93 84 70 71 68 60 61 59 57 56 54 55 55 55
80 75 72 81 62 71 62 77 79 80 84 74 75 66 78 82 88 88 88 94 94 93 92 74 89 91 94 95 92 83 70 62 62 61 61 61 59 60 60 58 57 57 57 58
90 91 86 67 63 71 73 85 71 78 85 75 80 72 75 77 66 92 92 94 90 93 88 79 88 92 91 78 74 69 61 62 62 62 61 61 60 62 63 62 60 61 62 62
80 65 65 76 78 76 78 82 78 83 78 77 83 80 78 70 67 81 83 91 92 89 84 88 90 91 71 66 62 58 60 62 61 58 59 62 63 63 63 64 64 64 64 63
78 78 83 85 82 78 88 87 85 74 81 84 82 81 79 74 81 86 78 88 80 82 80 90 90 79 66 62 62 64 65 66 72 70 70 70 67 67 67 66 66 66 66 66
84 76 86 84 84 85 84 80 73 76 80 80 79 76 70 81 80 78 66 64 76 78 87 86 77 70 68 69 67 66 65 66 73 71 77 80 79 79 77 73 71 73 73 70
80 82 89 77 86 81 79 82 81 78 82 76 73 78 77 91 81 73 87 64 85 88 86 85 76 82 79 75 70 71 69 66 66 65 66 66 65 67 70 73 74 76 79 87
82 90 77 84 84 86 83 78 81 76 73 87 82 86 93 84 75 80 80 88 88 87 81 70 66 77 81 88 83 73 71 71 70 72 73 75 76 81 78 71 70 75 75 79
Wind_Speed
24 27 28 28 27 27 7 5 3 3 8 4 3 8 4 1 5 4 4 3 5 6 4 6 8 6 5 5 8 5 4 3 3 2 3 2 3 5 9 3 5 1 2 5
25 27 28 29 27 24 8 3 3 2 4 5 7 5 4 4 6 6 7 6 7 2 4 5 9 5 3 6 8 8 6 5 3 3 2 3 6 8 8 2 1 6 4 3
22 24 26 27 27 21 3 3 3 3 4 4 6 8 7 5 6 4 6 3 4 4 6 7 3 5 2 3 5 1 4 3 8 5 3 6 6 11 13 9 4 5 6 2
20 22 25 27 27 22 3 3 2 2 3 6 10 4 4 4 5 6 9 5 13 9 7 6 6 6 5 4 4 4 4 6 7 8 5 4 4 10 15 15 10 7 5 8
19 21 23 26 28 21 3 4 3 2 5 6 7 7 6 10 7 8 7 9 10 14 10 9 7 11 7 5 9 7 4 2 1 4 4 6 8 12 14 16 17 20 20 18
18 19 20 22 26 20 5 6 3 4 6 6 6 11 9 5 2 9 7 12 10 12 18 5 1 5 1 4 8 12 8 5 5 3 2 3 10 18 19 16 14 19 16 16
16 17 18 19 20 19 6 5 4 4 10 12 11 9 5 8 7 8 3 6 7 1 5 10 5 5 3 5 6 7 6 8 3 3 2 6 5 2 4 14 18 17 12 2
14 15 16 16 16 18 8 5 4 3 8 12 15 16 16 13 11 8 10 6 1 5 4 3 5 4 3 8 6 7 5 7 4 4 8 12 12 6 6 9 8 14 13 10
15 14 14 14 14 14 10 3 6 3 4 7 9 10 14 11 11 9 5 2 0 2 4 3 6 7 7 6 4 1 6 2 6 6 6 7 3 5 4 4 7 6 8 11
15 15 15 13 13 12 10 5 5 1 3 2 7 9 5 5 6 6 2 3 4 1 5 6 8 11 4 6 8 6 5 5 13 12 10 9 6 8 5 7 2 6 8 12
16 16 14 13 12 12 10 6 2 2 3 10 6 5 5 5 3 3 4 2 3 4 7 6 8 8 9 9 8 8 9 10 6 7 8 11 10 6 6 5 8 11 11 12
18 19 16 14 13 11 9 5 4 5 5 7 23 23 22 15 15 7 4 5 3 2 5 6 5 7 4 10 11 2 6 8 4 9 3 5 3 6 8 6 13 12 13 11
18 17 17 14 13 11 7 6 7 6 5 10 8 7 11 15 18 7 3 3 4 4 2 2 2 6 2 8 10 8 4 2 3 2 8 6 7 7 6 9 10 10 11 12
17 16 16 15 14 13 12 11 10 8 5 4 6 6 6 8 12 13 13 8 5 5 3 4 4 4 3 4 4 6 4 7 3 3 5 11 8 7 9 11 13 14 12 11
16 14 15 15 15 15 14 13 12 11 7 5 9 20 18 16 12 13 14 14 6 2 2 3 2 2 3 2 2 4 6 4 3 1 5 6 10 8 10 13 13 13 12 10
15 15 15 15 15 13 10 3 4 6 4 3 3 5 6 5 8 10 11 10 4 3 2 2 1 2 2 3 3 7 9 11 7 4 15 15 14 13 14 13 11 9 10 9
15 17 18 18 14 11 6 4 5 6 6 3 4 4 1 3 5 3 3 10 3 3 2 3 2 3 4 3 3 6 12 14 12 10 10 13 12 9 11 10 9 10 9 8
17 19 19 16 11 6 4 4 5 8 5 3 3 4 3 6 3 3 1 3 3 2 0 3 3 3 3 4 6 8 9 13 16 15 15 13 10 9 7 9 8 6 5 5
18 20 13 2 1 2 2 12 10 5 3 3 2 3 4 6 2 2 2 2 1 4 4 4 3 4 5 8 8 10 12 10 8 9 9 9 9 8 7 6 6 5 5 6
15 6 3 1 1 13 8 2 1 0 1 2 2 4 4 6 4 1 4 2 2 3 4 3 4 7 10 10 9 10 10 10 10 10 9 9 8 7 6 6 5 6 6 9
5 5 2 6 10 3 2 1 2 1 2 3 3 4 5 3 4 3 3 3 3 3 4 3 3 3 6 8 9 8 9 10 9 7 6 7 7 7 8 8 10 10 10 10
4 5 4 4 3 1 1 2 2 3 4 4 5 5 4 3 3 3 4 3 3 5 2 3 3 3 7 7 7 6 9 9 9 9 10 11 11 10 9 9 10 10 11 11
1 1 2 4 3 4 4 4 3 3 6 5 5 4 3 3 4 1 3 4 4 1 3 3 4 5 6 6 6 7 10 11 12 12 12 12 11 11 11 12 12 12 13 13
2 3 5 4 3 4 4 5 4 4 6 7 6 3 3 2 3 2 4 3 1 3 3 4 4 7 7 7 7 8 9 11 12 13 13 13 13 14 13 12 12 13 14 14
3 3 4 5 3 4 3 5 4 5 6 5 3 1 2 4 3 4 2 4 5 5 4 3 5 7 8 8 10 10 10 12 10 11 10 11 12 12 13 13 13 13 13 13
2 5 1 3 1 5 5 6 7 6 6 2 1 2 3 6 4 5 5 3 5 3 3 4 6 6 7 8 10 11 13 13 13 12 13 14 14 14 14 15 12 11 11 13
4 3 6 5 3 5 5 6 7 12 4 3 2 5 4 3 4 3 5 4 4 5 5 5 6 7 7 8 10 12 12 12 12 13 14 14 13 12 13 12 13 13 14 14
Wind_Direction
4 4 2 3 359 4 11 295 252 148 160 192 213 241 248 12 189 177 192 256 263 245 222 215 216 226 206 174 156 160 173 282 189 167 90 332 294 240 202 219 182 205 305 267
2 1 360 358 1 358 329 273 282 166 202 229 220 214 247 252 189 211 189 211 222 195 227 232 224 218 105 170 171 175 170 217 188 185 186 185 226 206 230 147 126 201 190 230
7 4 3 358 356 350 333 282 265 162 214 282 275 261 239 223 213 220 201 226 185 187 215 219 242 228 171 191 203 79 180 232 252 266 29 122 195 195 201 202 185 193 228 256
5 4 3 360 357 348 297 218 279 9 226 236 239 267 303 238 228 233 210 210 218 198 212 195 220 195 157 182 173 198 233 247 218 245 220 218 222 186 195 208 210 199 186 202
2 4 4 3 359 360 276 297 314 205 287 282 254 229 247 235 228 180 227 238 203 210 220 209 201 182 191 191 174 186 195 251 206 254 198 239 250 231 208 219 224 241 254 266
356 358 2 5 8 14 351 355 307 287 273 257 260 247 250 264 263 219 261 229 229 216 228 226 146 180 243 144 175 184 176 200 204 230 148 246 263 235 221 221 221 225 240 251
353 356 359 3 7 14 336 339 298 276 270 261 259 271 277 266 258 268 306 226 227 50 100 97 116 134 134 181 180 197 188 204 213 258 197 242 273 23 291 238 238 225 246 208
345 348 351 356 1 4 2 346 328 283 274 277 283 273 269 270 267 251 248 221 327 169 170 194 183 188 213 205 187 203 232 202 224 231 231 279 298 190 184 189 240 225 230 218
338 336 338 342 347 351 354 337 355 317 292 234 310 296 291 285 272 244 217 140 49 207 220 212 213 215 216 182 177 229 195 268 232 182 238 249 80 93 114 128 257 173 186 165
330 329 326 324 328 333 332 294 342 298 288 284 318 266 298 334 301 284 349 176 173 226 206 227 230 236 226 215 194 173 170 200 218 225 239 262 113 140 150 204 277 147 157 154
327 317 321 324 319 319 337 303 289 213 273 279 262 324 336 339 240 268 30 255 206 187 221 226 218 238 223 237 235 166 172 170 186 201 233 247 141 128 213 100 109 125 129 147
322 330 316 303 319 337 322 282 262 244 235 280 293 275 260 242 279 297 254 286 322 307 236 227 240 229 226 229 239 90 219 214 200 200 216 78 96 60 105 131 132 125 118 110
313 313 327 328 313 305 309 296 296 273 272 284 262 279 318 222 231 246 266 247 309 232 17 322 293 258 285 228 229 257 212 152 238 163 141 106 84 60 47 83 99 100 114 121
315 310 310 320 320 318 310 280 277 272 275 276 299 301 269 223 263 281 262 283 304 317 319 235 230 232 198 250 312 295 359 321 238 83 92 94 72 76 91 91 99 101 101 107
311 309 307 304 311 311 311 284 278 257 248 300 297 302 286 261 245 252 258 244 255 233 208 220 230 243 236 267 69 39 348 339 270 67 113 94 107 100 93 94 94 100 109 103
315 314 309 302 301 309 318 276 211 222 238 294 285 342 276 266 247 266 275 259 242 204 237 220 195 63 242 84 76 18 16 38 41 63 81 88 93 90 89 92 93 88 80 71
309 313 312 306 306 298 250 298 338 296 283 262 287 276 149 310 301 282 268 232 213 192 205 215 71 48 45 41 74 27 38 42 46 50 85 74 64 77 79 84 84 88 89 78
310 315 310 301 295 282 268 271 319 321 238 225 270 278 280 12 312 295 338 294 170 189 25 51 43 39 61 73 59 52 44 56 50 49 57 72 82 72 67 66 62 70 60 30
313 313 311 283 235 286 309 302 292 259 283 299 272 313 331 343 309 300 292 303 40 52 37 38 55 48 54 69 64 54 40 37 51 66 58 63 61 58 45 37 32 24 9 354
322 339 309 246 11 313 312 192 268 168 3 261 294 336 316 326 334 323 322 337 21 83 58 83 73 75 78 60 51 46 40 38 30 38 30 22 28 21 12 6 357 354 343 336
349 351 334 318 327 315 337 21 325 16 189 8 349 345 327 25 327 330 25 324 349 74 50 49 76 69 49 50 53 43 38 39 38 37 29 20 6 358 353 349 347 342 334 329
312 314 307 319 357 353 13 21 351 351 30 4 342 340 326 326 335 311 2 355 50 68 13 74 80 55 37 48 51 41 32 28 26 19 8 3 358 351 337 329 332 330 323 318
0 359 26 340 350 30 16 15 19 21 353 11 336 321 346 318 9 33 355 41 56 253 42 60 59 45 34 28 23 19 20 16 11 0 356 348 342 340 339 329 324 321 316 316
44 8 23 14 26 41 19 11 10 359 323 334 329 311 358 349 14 346 52 41 323 69 61 65 53 25 12 16 14 8 2 360 354 345 341 338 336 329 324 319 317 315 311 313
50 5 35 44 31 45 13 353 327 354 324 330 303 264 324 13 49 22 17 47 53 39 47 59 19 7 5 5 2 355 348 341 333 328 322 318 315 313 312 313 311 307 303 304
45 39 10 0 332 39 10 359 352 358 336 286 298 356 53 43 10 40 25 34 40 54 33 24 357 3 357 354 345 339 333 326 321 322 323 321 320 316 313 311 305 303 304 299
31 34 21 7 28 17 3 347 346 328 332 18 5 43 20 286 43 47 15 37 23 7 357 357 358 351 357 343 332 335 331 326 329 327 323 320 317 316 308 310 322 316 312 303